Погода в Майске

Погода в Майске : погода сейчас, прогноз погоды и архив. Всё, что Вы хотите узнать о погоде в Майске!

Хотите узнать прогноз погоды в Майске? Тогда Вам сюда: Погода в Майске

Поиск расширенной информации на нашем сайте:

Другие новости

Новости СМИ2

Главная страница сайта

Новости сайта

02.10.2013

Напоминаем, что на нашем новом сайте вы можете получить высокодетализированные прогнозы погоды по пунктам России, СНГ и мира (включающие важные для авиации метеовеличины, такие как направление и скорость ветра, видимость, явления погоды, количество и форма облачности, нижняя и верхняя граница облачности), а также ознакомиться с разнообразными материалами по авиационной метеорологии и подборкой полезных ссылок на эту тему.

Сайт Метеоцентр.Азия посвящён разработке технологий оптимизации авиаметеорологического обслуживания, включая проектирование и перспективное создание нескольких автоматизированных авиаметеорологических систем:
- система выпуска высокодетальных прогностических карт явлений погоды для нижнего воздушного пространства по России и ближнему зарубежью;
- система верификации прогнозов TAF (выпускаемых синоптиками официальных АМСГ РФ и ближнего зарубежья) и AUTOTAF (выпускаемых сайтом Метеоцентр.Азия) - выявление ошибок, онлайн-сопоставление с фактической погодой METAR, автоматическое внесение коррективов в прогнозы при резком отклонении фактической погоды от прогноза, подсчёт оправдываемости прогнозов по элементам и в целом;
- система обработки, анализа и отображения авиаметеорологической информации для применения провайдерами метеорологической информации.

Рекомендуем: подогрев сидений

Погода в Майске - сегодня

Время (UTC), дата Ветер
(°,м/с) 
Видим.   Явления Облачность Т
(°С)
Тd
(°С)
f(%) Тe
(°С)
Pmin
(гПа)
dP
(гПа)
Po
(мм)
O2
(г/м3)
Тmin Tmax R s Состояние
почвы
09 24.03.17 160 (Ю) 2{10}  20000 м    4/0 верхняя 
[Cs]
+7.3 -7.4 34 +7  1024.1  -3.3  759  299           
12 24.03.17 110 (В) 20000 м    8/0 верхняя 
[Cs]
+6.2 -8.1 35 +6  1020.1  -3.9  756  299    +7.8       
15 24.03.17 160 (Ю) 20000 м    ясно 
+1.7 -8.7 46 +2  1017.6  -2.8  754  303           
18 24.03.17 140 (ЮВ) 20000 м    ясно 
-3.7 -8.1 71 -3  1014.6  -3.1  751  308           
21 24.03.17 140 (ЮВ) 20000 м    10/10 600 м 
[Sc]
-2 -6.6 71 -1  1011.9  -2.6  749  305           
00 25.03.17 180 (Ю) 10 км  слаб. снег  10/10 600 м 
[Sc]
-1.6 -4.3 82 -1  1009.8  -2  748  304  -4    0.3  79  неравномерный
сухой снег
100% 
03 25.03.17 200 (Ю) 20000 м  {снег}  10/0 средняя 
[As op]
-1.7 -2.5 94 -1  1008.8  -1  747  303           
06 25.03.17 200 (Ю) 20000 м  {снег}  10/8 300 м средняя 
[St|As op]
-0.1 -4.2 74 +1  1008.7  -0.1  747  302           
09 25.03.17 270 (З) 20000 м    6/1 600 м средняя, верхняя 
[Sc diur, vesp|As trans|Cs]
+3.1 -5.6 53 +2  1009.5  0.9  748  299           
12 25.03.17 270 (З) 2{10}  20000 м    5/5 600 м 
[Sc]
+4 -6.8 45 +4  1011.8  2.3  750  298    +4.9     
15 25.03.17 270 (З) 20000 м    9/9 600 м 
[Sc]
+2.1 -5.1 59 +3  1014.9  3.1  752  301           
18 25.03.17 250 (З) 20000 м    ясно 
-2.6 -5.9 78 -2  1017.5  2.2  754  307           
21 25.03.17 230 (ЮЗ) 20000 м    ясно 
-2.1 -5.3 79 -2  1019.5  755  307           
00 26.03.17 230 (ЮЗ) 20000 м    3/0 верхняя 
[Cs]
-2.6 -5.6 80 -2  1021.4  1.9  756  308  -3.2      80  неравномерный
сухой снег
100% 
03 26.03.17 160 (Ю) 20000 м    10/0 верхняя 
[Cc]
-1.5 -4.5 80 -1  1021.7  0.4  757  307           
06 26.03.17 200 (Ю) 3-10  20000 м    10/0 верхняя 
[Cs]
+4.2 -4 55 +3  1020.9  -0.5  756  301           
09 26.03.17 200 (Ю) 5-12{12}  20000 м    3/0 верхняя 
[Cs]
+5.3 -4.7 48 +3  1019  -1.9  755  299           
12 26.03.17 200 (Ю) 3-10{12}  20000 м    10/0 верхняя 
[Cc]
+3.8 -4.6 54 +3  1018.3  -1.7  754  300    +6.4       
15 26.03.17 160 (Ю) 1{10}  20000 м    10/0 верхняя 
[Cs]
+0.2 -5.3 66 +1  1016.2  -1.2  753  304           
18 26.03.17 180 (Ю) 20000 м    10/0 верхняя 
[Cs]
-1 -3.9 81 1015.1  -1.2  752  305           
21 26.03.17 160 (Ю) 20000 м    10/0 средняя 
[As trans]
-3 -4.7 88 -3  1013.4  -1.8  756  308           
00 27.03.17 140 (ЮВ) 20000 м    10/10 600 м 
[Sc]
-5.4 -5.8 97 -5  1012.3  -1.2  750  309  -5.4      79  неравномерный
мокрый или
старый снег
100% 
03 27.03.17 160 (Ю) 20000 м    10/8 300 м верхняя 
[St|Cs]
-2.9 -3.9 93 -2  1011.5  -0.6  749  306           
06 27.03.17 200 (Ю) 20000 м    10/0 верхняя 
[St|Cc]
+0 -3.7 76 -1  1011.1  -0.3  749  302           
09 27.03.17 250 (З) 3-10{10}  20000 м    10/10 600 м 
[Sc]
+0.3 -3.4 76 -1  1011.2  0.1  749  302           
Время (UTC), дата Ветер
(°,м/с) 
Видим.   Явления Облачность Т
(°С)
Тd
(°С)
f(%) Тe
(°С)
Pmin
(гПа)
dP
(гПа)
Po
(мм)
O2
(г/м3)
Тmin Tmax R s Состояние
почвы

Для получения пояснительной информации подведите курсор к названию столбца.

ПОГОДА в Майске - архив

Всё, что Вы хотите узнать о погоде в Майске - удобно и подробно!

Выберите нужную дату (начиная с 1 января 2015* года) и нажмите кнопку "Найти".
Будут отображены архивные сводки погоды по пункту Майск, начиная с указанной даты.


Отображать данные в формате CSV (для использования в таблицах Excel)


Внимание! Наш архив погоды предназначен исключительно для личного некоммерческого использования в познавательных целях. Если Вам необходимы официальные справки о состоянии погоды (для производственных, юридических, коммерческих и т.п. целей), обращайтесь в органы Росгидромета.

*Примечание: данная дата относится к архиву по метеостанциям СССР (Россия, СНГ, Балтия).
Архив по метеостанциям Зарубежной Европы и Азии (кроме Китая) хранится 10 дней, по другим регионам земного шара (Китай, Африка, Америка, Австралия, Океания) - 1 день.

Майск - район местоположения метеостанции


Название, широта, долгота, высота метеостанции:
Майск 57.8°ш. 77.3°д. 100 м над ур. моря [Российская Федерация]

Дополнительная информация

В oтличие oт бoльшинства пoгoдных сайтoв мы публикуем пoдрoбную метеoинфoрмацию в детальнoм прoфессиoнальнoм фoрмате.

Характеристики температуры и влажнoсти вoздуха измеряются на высoте 2 м в тени вдали oт зданий и деревьев.
Скoрoсть ветра измеряется на высoте 10 м (на урoвне рoста челoвека скoрoсть ветра ниже в 1.5-2 раза). Если метеoстанция нахoдится в гoрoде или в лесу, тo скoрoсть ветра занижена на 2-4 м/с пo сравнению с oткрытым местoм. Скoрoсть ветра над акватoриями крупных рек и oзёр, а также на вершинах хoлмoв на 2-5 м/с выше, чем в oбычных услoвиях.
Атмoсфернoе давление в разных тoчках местнoсти мoжет значительнo oтличаться oт давления на метеoстанции, в зависимoсти oт услoвий рельефа (при пoдъёме на 10 м давление пoнижается примернo на 1 мм рт.ст.).